Date String (YYYY-MM-DD hh:mm:ss) UTC,Instrument flags,Ambient pressure (hPa),Sample flow (lpm),Bypass flow (lpm),Sample temperature (°C),Ambient temperature (°C),ASC tube jacket temperature (°C),LED temperature (°C),Box temperature (°C),Sample RH (%),Span deviation,Mass concentration (μg/m³),Mass concentration (μg/m³),Mass concentration (μg/m³)
DateTimeUTC,F1_M11,P_M11,Q1_M11,Q2_M11,T1_M11,T2_M11,T3_M11,T4_M11,T5_M11,U1_M11,ZSPAN_M11,X2_M11,X0_M11,X1_M11
2022-05-22 14:00:00,,0832.5,5.00,0.00,23.6,22.8,00.0,32.4,25.5,17.6,0000.0,0000.03,0000.07,0000.00
2022-05-22 14:01:00,,0832.5,5.00,0.00,23.6,22.8,00.0,32.4,25.5,17.9,0000.0,0000.03,0000.08,0000.00
2022-05-22 14:02:00,,0832.5,5.00,0.00,23.6,22.8,00.0,32.4,25.5,17.7,0000.0,0000.03,0000.08,0000.00
2022-05-22 14:03:00,,0832.5,5.00,0.00,23.6,22.8,00.0,32.4,25.5,17.8,0000.0,0000.03,0000.08,0000.00
2022-05-22 14:04:00,,0832.6,5.00,0.00,23.6,22.8,00.0,32.5,25.5,18.0,0000.0,0000.03,0000.08,0000.00
2022-05-22 14:05:00,,0832.5,5.01,0.00,23.6,22.8,00.0,32.5,25.5,17.4,0000.0,0000.04,0000.12,0000.00
2022-05-22 14:06:00,,0832.5,4.99,0.00,23.6,22.8,00.0,32.5,25.5,17.5,0000.0,0000.04,0000.19,0000.00
2022-05-22 14:07:00,,0832.5,5.00,0.00,23.6,22.8,00.0,32.5,25.5,17.6,0000.0,0000.04,0000.19,0000.00
2022-05-22 14:08:00,,0832.6,5.01,0.00,23.6,22.8,00.0,32.5,25.5,17.6,0000.0,0000.04,0000.19,0000.00
2022-05-22 14:09:00,,0832.6,5.00,0.00,23.6,22.8,00.0,32.5,25.5,18.1,0000.0,0000.04,0000.19,0000.00
2022-05-22 14:10:00,,0832.6,5.00,0.00,23.6,22.8,00.0,32.5,25.5,18.1,0000.0,0000.04,0000.18,0000.00
2022-05-22 14:11:00,,0832.6,5.00,0.00,23.6,22.8,00.0,32.5,25.5,18.0,0000.0,0000.02,0000.13,0000.00
2022-05-22 14:12:00,,0832.6,5.00,0.00,23.6,22.8,00.0,32.5,25.5,18.0,0000.0,0000.02,0000.13,0000.00
2022-05-22 14:13:00,,0832.6,5.01,0.00,23.6,22.8,00.0,32.5,25.5,17.8,0000.0,0000.02,0000.13,0000.00
2022-05-22 14:14:00,,0832.6,5.00,0.00,23.6,22.8,00.0,32.5,25.5,18.1,0000.0,0000.02,0000.13,0000.00
2022-05-22 14:15:00,,0832.5,5.00,0.00,23.6,22.8,00.0,32.5,25.6,18.4,0000.0,0000.02,0000.13,0000.00
2022-05-22 14:16:00,,0832.5,4.98,0.00,23.7,22.8,00.0,32.5,25.6,18.6,0000.0,0000.02,0000.11,0000.00
2022-05-22 14:17:00,,0832.5,5.01,0.00,23.7,22.8,00.0,32.5,25.6,18.6,0000.0,0000.01,0000.02,0000.00
2022-05-22 14:18:00,,0832.5,4.99,0.00,23.7,22.9,00.0,32.6,25.6,18.9,0000.0,0000.01,0000.02,0000.00
2022-05-22 14:19:00,,0832.5,5.00,0.00,23.7,22.9,00.0,32.6,25.6,18.9,0000.0,0000.01,0000.02,0000.00
2022-05-22 14:20:00,,0832.5,5.00,0.00,23.7,22.9,00.0,32.6,25.6,19.0,0000.0,0000.01,0000.02,0000.00
2022-05-22 14:21:00,,0832.5,5.01,0.00,23.7,22.9,00.0,32.6,25.6,18.5,0000.0,0000.01,0000.02,0000.00
2022-05-22 14:22:00,,0832.5,4.99,0.00,23.7,22.9,00.0,32.6,25.6,18.5,0000.0,0000.01,0000.02,0000.00
2022-05-22 14:23:00,,0832.5,5.00,0.00,23.7,22.9,00.0,32.6,25.6,19.1,0000.0,0000.01,0000.01,0000.00
2022-05-22 14:24:00,,0832.5,4.99,0.00,23.7,22.9,00.0,32.6,25.6,19.5,0000.0,0000.01,0000.01,0000.00
2022-05-22 14:25:00,,0832.5,5.00,0.00,23.7,22.9,00.0,32.6,25.7,18.4,0000.0,0000.01,0000.01,0000.00
2022-05-22 14:26:00,,0832.5,5.01,0.00,23.8,23.0,00.0,32.6,25.7,18.3,0000.0,0000.02,0000.03,0000.00
2022-05-22 14:27:00,,0832.5,5.00,0.00,23.8,23.0,00.0,32.6,25.7,19.2,0000.0,0000.02,0000.03,0000.00
2022-05-22 14:28:00,,0832.5,4.99,0.00,23.8,23.0,00.0,32.6,25.7,18.7,0000.0,0000.04,0000.05,0000.00
2022-05-22 14:29:00,,0832.5,5.02,0.00,23.8,23.0,00.0,32.6,25.7,18.6,0000.0,0000.04,0000.06,0000.00
2022-05-22 14:30:00,,0832.5,4.99,0.00,23.8,23.0,00.0,32.6,25.7,19.0,0000.0,0000.04,0000.06,0000.00
2022-05-22 14:31:00,,0832.5,5.00,0.00,23.8,23.0,00.0,32.7,25.7,18.9,0000.0,0000.04,0000.06,0000.01
2022-05-22 14:32:00,,0832.5,5.00,0.00,23.8,23.0,00.0,32.7,25.7,18.8,0000.0,0000.05,0000.07,0000.01
2022-05-22 14:33:00,,0832.5,4.99,0.00,23.8,23.0,00.0,32.7,25.7,18.9,0000.0,0000.06,0000.11,0000.01
2022-05-22 14:34:00,,0832.5,5.00,0.00,23.8,23.1,00.0,32.7,25.8,19.1,0000.0,0000.06,0000.11,0000.00
2022-05-22 14:35:00,,0832.5,5.00,0.00,23.9,23.1,00.0,32.7,25.8,17.9,0000.0,0000.05,0000.11,0000.00
2022-05-22 14:36:00,,0832.5,4.99,0.00,23.9,23.1,00.0,32.7,25.9,18.7,0000.0,0000.06,0000.11,0000.01
2022-05-22 14:37:00,,0832.5,5.01,0.00,23.9,23.1,00.0,32.7,25.9,19.2,0000.0,0000.05,0000.11,0000.01
2022-05-22 14:38:00,,0832.4,4.99,0.00,23.9,23.1,00.0,32.7,25.9,18.7,0000.0,0000.04,0000.09,0000.01
2022-05-22 14:39:00,,0832.4,5.00,0.00,23.9,23.1,00.0,32.7,25.9,18.7,0000.0,0000.03,0000.22,0000.01
2022-05-22 14:40:00,,0832.5,5.00,0.00,23.9,23.1,00.0,32.8,25.9,18.2,0000.0,0000.03,0000.21,0000.01
2022-05-22 14:41:00,,0832.5,5.00,0.00,23.9,23.1,00.0,32.8,25.9,18.3,0000.0,0000.03,0000.21,0000.00
2022-05-22 14:42:00,,0832.4,5.00,0.00,23.9,23.2,00.0,32.8,25.9,18.4,0000.0,0000.03,0000.29,0000.00
2022-05-22 14:43:00,,0832.5,5.00,0.00,23.9,23.2,00.0,32.8,25.9,18.6,0000.0,0000.03,0000.31,0000.01
2022-05-22 14:44:00,,0832.4,5.00,0.00,24.0,23.2,00.0,32.8,25.9,19.1,0000.0,0000.02,0000.27,0000.01
2022-05-22 14:45:00,,0832.5,5.00,0.00,24.0,23.2,00.0,32.8,25.9,19.0,0000.0,0000.02,0000.27,0000.00
2022-05-22 14:46:00,,0832.4,5.00,0.00,24.0,23.2,00.0,32.8,26.0,18.4,0000.0,0000.02,0000.27,0000.00
2022-05-22 14:47:00,,0832.4,5.01,0.00,24.0,23.2,00.0,32.8,26.0,18.6,0000.0,0000.02,0000.27,0000.00
2022-05-22 14:48:00,,0832.4,5.00,0.00,24.0,23.2,00.0,32.8,26.0,18.6,0000.0,0000.02,0000.27,0000.00
2022-05-22 14:49:00,,0832.4,4.99,0.00,24.0,23.2,00.0,32.8,26.0,18.8,0000.0,0000.02,0000.27,0000.00
2022-05-22 14:50:00,,0832.4,5.01,0.00,24.0,23.3,00.0,32.9,26.0,19.4,0000.0,0000.01,0000.13,0000.00
2022-05-22 14:51:00,,0832.4,5.00,0.00,24.0,23.3,00.0,32.9,26.0,19.9,0000.0,0000.01,0000.61,0000.00
2022-05-22 14:52:00,,0832.4,5.01,0.00,24.0,23.3,00.0,32.9,26.0,19.6,0000.0,0000.01,0001.77,0000.00
2022-05-22 14:53:00,,0832.4,5.00,0.00,24.0,23.3,00.0,32.9,26.0,19.7,0000.0,0000.01,0001.72,0000.00
2022-05-22 14:54:00,,0832.4,4.99,0.00,24.1,23.3,00.0,32.9,26.1,19.2,0000.0,0000.00,0001.66,0000.00
2022-05-22 14:55:00,,0832.5,5.00,0.00,24.1,23.3,00.0,32.9,26.0,19.7,0000.0,0000.00,0001.66,0000.00
2022-05-22 14:56:00,,0832.4,5.00,0.00,24.1,23.3,00.0,32.9,26.1,19.7,0000.0,0000.00,0001.66,0000.00
2022-05-22 14:57:00,,0832.4,4.99,0.00,24.1,23.3,00.0,32.9,26.0,19.5,0000.0,0000.00,0001.66,0000.00
2022-05-22 14:58:00,,0832.4,5.01,0.00,24.1,23.3,00.0,32.9,26.1,19.4,0000.0,0000.00,0001.66,0000.00
2022-05-22 14:59:00,,0832.4,4.99,0.00,24.1,23.3,00.0,33.0,26.1,19.3,0000.0,0000.00,0001.66,0000.00
